Regional Weather Roundup
Issued by NWS

Home | Current Version | Previous Version | Graphics & Text | Print | Product List | Glossary On
Versions: 1 2 3 4 5 6 7 8 9 10 11 12 13 14 15 16 17 18 19 20 21 22 23 24 25 26 27 28 29 30 31 32 33 34 35 36 37 38 39 40 41 42 43 44 45 46 47 48 49 50
660
ASUS45 KCYS 132310
RWRWY

WYOMING REGIONAL WEATHER ROUNDUP
NATIONAL WEATHER SERVICE CHEYENNE WY
400 PM MST WED DEC 13 2017

NOTE:  "FAIR" INDICATES FEW OR NO CLOUDS BELOW 12,000 FEET
WITH NO SIGNIFICANT WEATHER AND/OR OBSTRUCTIONS TO VISIBILITY.

WYZ001-140000-
YELLOWSTONE NATIONAL PARK

CITY           SKY/WX    TMP DP  RH WIND       PRES   REMARKS
LK YELLOWSTONE   N/A     23  20  88 CALM      30.18S
W YELLOWSTONE  NOT AVBL

$$
WYZ002>013-054>058-071-098>099-140000-
NORTHERN WYOMING

CITY           SKY/WX    TMP DP  RH WIND       PRES   REMARKS
JACKSON        FLURRIES  28  23  81 NE7       30.17S WCI  21
CODY           LGT SNOW  32  30  93 NE9       30.20R FOG     WCI  24
GREYBULL       CLOUDY    37  31  78 NW18      30.16S WCI  27
WORLAND        CLOUDY    37  20  50 CALM      30.16R
SHERIDAN       CLOUDY    41  21  44 N7        30.15R
BUFFALO        CLOUDY    40  19  43 NW24G36   30.12S WCI  29
GILLETTE       MOCLDY    38  18  44 NW14      30.10R WCI  30
HULETT         FAIR      36  25  64 NW8       30.10R WCI  29
NEWCASTLE      FAIR      36  19  51 NW16G22   30.07R WCI  26

$$
WYZ014>020-022>026-101>103-140000-
CENTRAL WYOMING

CITY           SKY/WX    TMP DP  RH WIND       PRES   REMARKS
BIG PINEY      CLOUDY    32  20  61 N15G22    30.11R WCI  22
PINEDALE       CLOUDY    30  27  86 NW10      30.11S WCI  21
DUBOIS         CLOUDY    32  21  64 N7        30.10S WCI  26
LANDER         LGT SNOW  32  28  85 N8        30.14R FOG     WCI  25
RIVERTON       LGT SNOW  32  30  92 NW8       30.15S FOG     WCI  25
CASPER         CLOUDY    39  21  48 N6        30.10R WCI  35
DOUGLAS        CLOUDY    42  18  37 NW10      30.08R

$$
WYZ021-027>030-104>119-140000-
SOUTHERN WYOMING

CITY           SKY/WX    TMP DP  RH WIND       PRES   REMARKS
EVANSTON       LGT SNOW  34  18  52 W14       30.14S WCI  25
FORT BRIDGER   CLOUDY    39  10  30 NW10      30.14S WCI  32
ROCK SPRINGS   MOCLDY    38  -1  19 W5        30.08F WCI  34
DIXON          CLOUDY    36  23  59 CALM      30.10S
RAWLINS        CLOUDY    36  20  52 NW6       30.09R WCI  31
SARATOGA       CLOUDY    36  18  48 NW7       30.08R WCI  30
LARAMIE        CLOUDY    38  11  32 N6        30.04S WCI  33
CHEYENNE       CLOUDY    42  13  30 NE10      30.02R
TORRINGTON     FAIR      47  14  26 NW13      30.03R
PINE BLUFFS    CLOUDY    43  12  28 N8G21     30.02S

$$




USA.gov is the U.S. government's official web portal to all federal, state and local government web resources and services.